Time,TemperatureF,DewpointF,PressureIn,WindDirection,WindDirectionDegrees,WindSpeedMPH,WindSpeedGustMPH,Humidity,HourlyPrecipIn,Conditions,Clouds,dailyrainin,SoftwareType,DateUTC
2013-12-29 00:02:00,15.0,8.0,-100.00,North,0,3.0,21.0,73,0.01,,,-99.99,,2013-12-29 06:02:00,
2013-12-29 00:12:00,15.0,8.0,-100.00,North,0,3.0,21.0,73,0.01,,,-99.99,,2013-12-29 06:12:00,
2013-12-29 00:43:00,14.0,7.0,-100.00,North,10,4.0,14.0,74,0.35,,,-99.99,,2013-12-29 06:43:00,
2013-12-29 00:52:00,14.0,7.0,-100.00,North,10,4.0,14.0,74,0.35,,,-99.99,,2013-12-29 06:52:00,
2013-12-29 01:02:00,14.0,7.0,-100.00,North,10,4.0,14.0,74,0.35,,,-99.99,,2013-12-29 07:02:00,
2013-12-29 01:12:00,14.0,7.0,-100.00,North,10,4.0,14.0,74,0.35,,,-99.99,,2013-12-29 07:12:00,
2013-12-29 01:42:00,12.0,5.0,-100.00,North,0,6.0,14.0,73,0.04,,,-99.99,,2013-12-29 07:42:00,
2013-12-29 01:52:00,12.0,5.0,-100.00,North,0,6.0,14.0,73,0.04,,,-99.99,,2013-12-29 07:52:00,
2013-12-29 02:02:00,12.0,5.0,-100.00,North,0,6.0,14.0,73,0.04,,,-99.99,,2013-12-29 08:02:00,
2013-12-29 02:11:00,12.0,5.0,-100.00,North,0,6.0,14.0,73,0.04,,,-99.99,,2013-12-29 08:11:00,
2013-12-29 02:52:00,11.0,4.0,-100.00,North,0,4.0,16.0,73,0.08,,,-99.99,,2013-12-29 08:52:00,
2013-12-29 03:02:00,11.0,4.0,-100.00,North,0,4.0,16.0,73,0.08,,,-99.99,,2013-12-29 09:02:00,
2013-12-29 03:12:00,11.0,4.0,-100.00,North,0,4.0,16.0,73,0.08,,,-99.99,,2013-12-29 09:12:00,
2013-12-29 03:43:00,9.0,1.0,-100.00,North,0,4.0,12.0,71,0.04,,,-99.99,,2013-12-29 09:43:00,
2013-12-29 03:53:00,9.0,1.0,-100.00,North,0,4.0,12.0,71,0.04,,,-99.99,,2013-12-29 09:53:00,
2013-12-29 04:03:00,9.0,1.0,-100.00,North,0,4.0,12.0,71,0.04,,,-99.99,,2013-12-29 10:03:00,
2013-12-29 04:13:00,9.0,1.0,-100.00,North,0,4.0,12.0,71,0.04,,,-99.99,,2013-12-29 10:13:00,
2013-12-29 04:53:00,7.0,-1.0,-100.00,NW,325,4.0,13.0,71,0.10,,,-99.99,,2013-12-29 10:53:00,
2013-12-29 05:02:00,7.0,-1.0,-100.00,NW,325,4.0,13.0,71,0.10,,,-99.99,,2013-12-29 11:02:00,
2013-12-29 05:12:00,7.0,-1.0,-100.00,NW,325,4.0,13.0,71,0.10,,,-99.99,,2013-12-29 11:12:00,
2013-12-29 05:43:00,5.0,-3.0,-100.00,West,280,1.0,9.0,71,0.00,,,-99.99,,2013-12-29 11:43:00,
2013-12-29 05:53:00,5.0,-3.0,-100.00,West,280,1.0,9.0,71,0.00,,,-99.99,,2013-12-29 11:53:00,
2013-12-29 06:02:00,5.0,-3.0,-100.00,West,280,1.0,9.0,71,0.00,,,-99.99,,2013-12-29 12:02:00,
2013-12-29 06:11:00,5.0,-3.0,-100.00,West,280,1.0,9.0,71,0.00,,,-99.99,,2013-12-29 12:11:00,
2013-12-29 06:42:00,3.0,-4.0,-100.00,NW,315,4.0,12.0,73,0.04,,,-99.99,,2013-12-29 12:42:00,
2013-12-29 06:52:00,3.0,-4.0,-100.00,NW,315,4.0,12.0,73,0.04,,,-99.99,,2013-12-29 12:52:00,
2013-12-29 07:02:00,3.0,-4.0,-100.00,NW,315,4.0,12.0,73,0.04,,,-99.99,,2013-12-29 13:02:00,
2013-12-29 07:11:00,3.0,-4.0,-100.00,NW,315,4.0,12.0,73,0.04,,,-99.99,,2013-12-29 13:11:00,
2013-12-29 07:42:00,1.0,-6.0,-100.00,WNW,300,4.0,11.0,71,0.03,,,-99.99,,2013-12-29 13:42:00,
2013-12-29 07:53:00,1.0,-6.0,-100.00,WNW,300,4.0,11.0,71,0.03,,,-99.99,,2013-12-29 13:53:00,
2013-12-29 08:01:00,1.0,-6.0,-100.00,WNW,300,4.0,11.0,71,0.03,,,-99.99,,2013-12-29 14:01:00,
2013-12-29 08:11:00,1.0,-6.0,-100.00,WNW,300,4.0,11.0,71,0.03,,,-99.99,,2013-12-29 14:11:00,
2013-12-29 08:42:00,-1.0,-9.0,-100.00,WNW,285,6.0,13.0,70,0.04,,,-99.99,,2013-12-29 14:42:00,
2013-12-29 08:52:00,-1.0,-9.0,-100.00,WNW,285,6.0,13.0,70,0.04,,,-99.99,,2013-12-29 14:52:00,
2013-12-29 09:02:00,-1.0,-9.0,-100.00,WNW,285,6.0,13.0,70,0.04,,,-99.99,,2013-12-29 15:02:00,
2013-12-29 09:11:00,-1.0,-9.0,-100.00,WNW,285,6.0,13.0,70,0.04,,,-99.99,,2013-12-29 15:11:00,
2013-12-29 09:13:00,-1.0,-10.0,-100.00,NNW,340,4.0,11.0,67,0.01,,,-99.99,,2013-12-29 15:13:00,
2013-12-29 09:44:00,-1.0,-10.0,-100.00,NNW,340,4.0,11.0,67,0.01,,,-99.99,,2013-12-29 15:44:00,
2013-12-29 09:53:00,-1.0,-10.0,-100.00,NNW,340,4.0,11.0,67,0.01,,,-99.99,,2013-12-29 15:53:00,
2013-12-29 10:03:00,-1.0,-10.0,-100.00,NNW,340,4.0,11.0,67,0.01,,,-99.99,,2013-12-29 16:03:00,
2013-12-29 10:43:00,1.0,-9.0,-100.00,NW,310,2.0,11.0,61,0.00,,,-99.99,,2013-12-29 16:43:00,
2013-12-29 10:53:00,1.0,-9.0,-100.00,NW,310,2.0,11.0,61,0.00,,,-99.99,,2013-12-29 16:53:00,
2013-12-29 11:02:00,1.0,-9.0,-100.00,NW,310,2.0,11.0,61,0.00,,,-99.99,,2013-12-29 17:02:00,
2013-12-29 11:12:00,1.0,-9.0,-100.00,NW,310,2.0,11.0,61,0.00,,,-99.99,,2013-12-29 17:12:00,
2013-12-29 11:42:00,-1.0,-13.0,-100.00,WNW,300,6.0,12.0,57,0.00,,,-99.99,,2013-12-29 17:42:00,
2013-12-29 11:52:00,-1.0,-13.0,-100.00,WNW,300,6.0,12.0,57,0.00,,,-99.99,,2013-12-29 17:52:00,
2013-12-29 12:02:00,-1.0,-13.0,-100.00,WNW,300,6.0,12.0,57,0.00,,,-99.99,,2013-12-29 18:02:00,
2013-12-29 12:12:00,-1.0,-13.0,-100.00,WNW,300,6.0,12.0,57,0.00,,,-99.99,,2013-12-29 18:12:00,
2013-12-29 12:42:00,-1.0,-14.0,-100.00,WNW,295,3.0,14.0,54,0.00,,,-99.99,,2013-12-29 18:42:00,
2013-12-29 12:53:00,-1.0,-14.0,-100.00,WNW,295,3.0,14.0,54,0.00,,,-99.99,,2013-12-29 18:53:00,
2013-12-29 13:01:00,-1.0,-14.0,-100.00,WNW,295,3.0,14.0,54,0.00,,,-99.99,,2013-12-29 19:01:00,
2013-12-29 13:11:00,-1.0,-14.0,-100.00,WNW,295,3.0,14.0,54,0.00,,,-99.99,,2013-12-29 19:11:00,
2013-12-29 13:43:00,-2.0,-15.0,-100.00,WNW,300,7.0,16.0,55,0.01,,,-99.99,,2013-12-29 19:43:00,
2013-12-29 13:52:00,-2.0,-15.0,-100.00,WNW,300,7.0,16.0,55,0.01,,,-99.99,,2013-12-29 19:52:00,
2013-12-29 14:02:00,-2.0,-15.0,-100.00,WNW,300,7.0,16.0,55,0.01,,,-99.99,,2013-12-29 20:02:00,
2013-12-29 14:11:00,-2.0,-15.0,-100.00,WNW,300,7.0,16.0,55,0.01,,,-99.99,,2013-12-29 20:11:00,
2013-12-29 14:42:00,-2.0,-15.0,-100.00,WNW,295,7.0,13.0,53,0.00,,,-99.99,,2013-12-29 20:42:00,
2013-12-29 14:53:00,-2.0,-15.0,-100.00,WNW,295,7.0,13.0,53,0.00,,,-99.99,,2013-12-29 20:53:00,
2013-12-29 15:02:00,-2.0,-15.0,-100.00,WNW,295,7.0,13.0,53,0.00,,,-99.99,,2013-12-29 21:02:00,
2013-12-29 15:12:00,-2.0,-15.0,-100.00,WNW,295,7.0,13.0,53,0.00,,,-99.99,,2013-12-29 21:12:00,
2013-12-29 15:43:00,-4.0,-17.0,-100.00,West,275,9.0,15.0,53,0.00,,,-99.99,,2013-12-29 21:43:00,
2013-12-29 15:53:00,-4.0,-17.0,-100.00,West,275,9.0,15.0,53,0.00,,,-99.99,,2013-12-29 21:53:00,
2013-12-29 16:03:00,-4.0,-17.0,-100.00,West,275,9.0,15.0,53,0.00,,,-99.99,,2013-12-29 22:03:00,
2013-12-29 16:12:00,-4.0,-17.0,-100.00,West,275,9.0,15.0,53,0.00,,,-99.99,,2013-12-29 22:12:00,
2013-12-29 16:42:00,-5.0,-17.0,-100.00,West,275,4.0,12.0,57,0.00,,,-99.99,,2013-12-29 22:42:00,
2013-12-29 16:52:00,-5.0,-17.0,-100.00,West,275,4.0,12.0,57,0.00,,,-99.99,,2013-12-29 22:52:00,
2013-12-29 17:02:00,-5.0,-17.0,-100.00,West,275,4.0,12.0,57,0.00,,,-99.99,,2013-12-29 23:02:00,
2013-12-29 17:12:00,-5.0,-17.0,-100.00,West,275,4.0,12.0,57,0.00,,,-99.99,,2013-12-29 23:12:00,
2013-12-29 17:42:00,-8.0,-18.0,-100.00,West,280,4.0,8.0,61,0.00,,,-99.99,,2013-12-29 23:42:00,
2013-12-29 17:53:00,-8.0,-18.0,-100.00,West,280,4.0,8.0,61,0.00,,,-99.99,,2013-12-29 23:53:00,
2013-12-29 18:02:00,-8.0,-18.0,-100.00,West,280,4.0,8.0,61,0.00,,,-99.99,,2013-12-30 00:02:00,
2013-12-29 18:12:00,-8.0,-18.0,-100.00,West,280,4.0,8.0,61,0.00,,,-99.99,,2013-12-30 00:12:00,
2013-12-29 18:42:00,-10.0,-19.0,-100.00,West,270,3.0,8.0,61,0.00,,,-99.99,,2013-12-30 00:42:00,
2013-12-29 18:53:00,-10.0,-19.0,-100.00,West,270,3.0,8.0,61,0.00,,,-99.99,,2013-12-30 00:53:00,
2013-12-29 19:02:00,-10.0,-19.0,-100.00,West,270,3.0,8.0,61,0.00,,,-99.99,,2013-12-30 01:02:00,
2013-12-29 19:11:00,-10.0,-19.0,-100.00,West,270,3.0,8.0,61,0.00,,,-99.99,,2013-12-30 01:11:00,
2013-12-29 19:43:00,-11.0,-21.0,-100.00,WNW,285,6.0,12.0,58,0.00,,,-99.99,,2013-12-30 01:43:00,
2013-12-29 19:52:00,-11.0,-21.0,-100.00,WNW,285,6.0,12.0,58,0.00,,,-99.99,,2013-12-30 01:52:00,
2013-12-29 20:02:00,-11.0,-21.0,-100.00,WNW,285,6.0,12.0,58,0.00,,,-99.99,,2013-12-30 02:02:00,
2013-12-29 20:11:00,-11.0,-21.0,-100.00,WNW,285,6.0,12.0,58,0.00,,,-99.99,,2013-12-30 02:11:00,
2013-12-29 20:42:00,-11.0,-23.0,-100.00,West,275,6.0,12.0,54,0.00,,,-99.99,,2013-12-30 02:42:00,
2013-12-29 20:52:00,-11.0,-23.0,-100.00,West,275,6.0,12.0,54,0.00,,,-99.99,,2013-12-30 02:52:00,
2013-12-29 21:02:00,-11.0,-23.0,-100.00,West,275,6.0,12.0,54,0.00,,,-99.99,,2013-12-30 03:02:00,
2013-12-29 21:11:00,-11.0,-23.0,-100.00,West,275,6.0,12.0,54,0.00,,,-99.99,,2013-12-30 03:11:00,